Location: *
(49.5667°N, 1.3667°W)
Time: 19:42:18
(UTC+00:00)

Cosmos 2341 Rocket - Pass Details

Date: 20 September 2019
Orbit: 967 x 1005 km, 82.9° (Epoch: 16 October)

Event Time Altitude Azimuth Distance (km) Brightness Sun altitude
Rises 19:18:01 0° 351° (N) 3,695 7.4 -11.9°
Reaches altitude 10° 19:20:34 10° 353° (N) 2,738 6.7 -12.3°
Maximum altitude 19:26:50 73° 79° (ENE) 1,016 3.9 -13.3°
Drops below altitude 10° 19:33:02 10° 164° (SSE) 2,704 6.0 -14.2°
Sets 19:35:32 0° 166° (SSE) 3,645 6.7 -14.6°
